Weather History for KPWK - March, 2013

Change the Weather History Date:

Tuesday, March 12, 2013

  Actual Average Record
Temperature  
Mean Temperature 30 °F 36 °F  
Max Temperature 36 °F 45 °F 66 °F (2012)
Min Temperature 24 °F 28 °F 11 °F (1998)
Degree Days  
Heating Degree Days 35 29  
Month to date heating degree days 407 367  
Since 1 July heating degree days 4914 5105  
Cooling Degree Days 0 0  
Month to date cooling degree days 0 0  
Year to date cooling degree days 0 0  
Moisture  
Dew Point 25 °F    
Average Humidity 82    
Maximum Humidity 93    
Minimum Humidity 64    
Precipitation  
Precipitation 0.04 in 0.06 in 0.37 in (2006)
Month to date precipitation 0.64 0.75  
Year to date precipitation 5.60 3.33  
Sea Level Pressure  
Sea Level Pressure 29.91 in    
Wind  
Wind Speed 11 mph (West)    
Max Wind Speed 22 mph    
Max Gust Speed 30 mph    
Visibility 5 miles    
Events Fog , Snow    
T = Trace of Precipitation, MM = Missing Value Source: NWS Daily Summary

Daily Weather History Graph

Daily Weather History Graph

Search for Another Location

Airport or City:

Trip Planner

Search our weather history database for the weather conditions in past years. The results will help you decide how hot, cold, wet, or windy it might be!

Date:

Astronomy

Mar. 12, 2013 Rise Set
Actual Time 7:08 AM CDT 6:54 PM CDT
Civil Twilight 6:40 AM CDT 7:22 PM CDT
Nautical Twilight 6:07 AM CDT 7:55 PM CDT
Astronomical Twilight 5:35 AM CDT 8:28 PM CDT
Moon 7:12 AM CDT (3/12) 8:12 PM CDT (3/12)
Length of Visible Light 12h 42m
Length of Day
11h 46m
New Moon, 1% of the Moon is Illuminated
Mar 12
New Moon
Mar 19
First Quarter
Mar 27
Full
Apr 2
Last Quarter
Apr 10
New

Hourly Weather History & Observations

Time (CDT) Temp. Windchill Dew Point Humidity Pressure Visibility Wind Dir Wind Speed Gust Speed Precip Events Conditions
12:25 AM 32.0 °F 22.1 °F 28.4 °F 87% 29.79 in 10.0 mi West 13.8 mph 20.7 mph N/A   Overcast
12:52 AM 32.0 °F 23.6 °F 28.9 °F 88% 29.81 in 8.0 mi West 10.4 mph 20.7 mph N/A   Overcast
1:33 AM 32.0 °F 23.6 °F 28.4 °F 87% 29.81 in 9.0 mi West 10.4 mph - N/A   Overcast
1:52 AM 32.0 °F 24.2 °F 28.0 °F 85% 29.83 in 10.0 mi West 9.2 mph - N/A   Overcast
2:52 AM 32.0 °F 24.8 °F 28.0 °F 85% 29.84 in 9.0 mi West 8.1 mph - N/A   Overcast
3:52 AM 30.9 °F 24.3 °F 26.1 °F 82% 29.85 in 10.0 mi West 6.9 mph - N/A   Overcast
4:34 AM 30.2 °F 21.3 °F 26.6 °F 86% 29.84 in 1.8 mi WSW 10.4 mph - 0.00 in Snow Light Snow
4:52 AM 30.0 °F 21.7 °F 27.0 °F 88% 29.86 in 2.0 mi West 9.2 mph - 0.00 in Snow Light Snow
5:02 AM 30.2 °F 19.8 °F 26.6 °F 86% 29.85 in 4.0 mi West 13.8 mph 19.6 mph 0.00 in Snow Light Snow
5:16 AM 30.2 °F 21.9 °F 26.6 °F 86% 29.85 in 2.0 mi West 9.2 mph - 0.00 in Snow Light Snow
5:27 AM 30.2 °F 23.4 °F 26.6 °F 86% 29.86 in 1.5 mi West 6.9 mph - 0.00 in Snow Light Snow
5:38 AM 30.2 °F 23.4 °F 26.6 °F 86% 29.86 in 1.2 mi West 6.9 mph - 0.00 in Snow Light Snow
5:52 AM 28.9 °F 20.4 °F 26.1 °F 89% 29.88 in 1.8 mi West 9.2 mph - 0.00 in Snow Light Snow
5:59 AM 28.4 °F 19.1 °F 26.6 °F 93% 29.87 in 2.0 mi West 10.4 mph 17.3 mph 0.00 in Snow Light Snow
6:33 AM 28.4 °F 19.1 °F 26.6 °F 93% 29.87 in 2.5 mi WSW 10.4 mph - 0.00 in Snow Light Snow
6:52 AM 28.9 °F 21.9 °F 26.1 °F 89% 29.90 in 4.0 mi West 6.9 mph - 0.00 in   Overcast
7:52 AM 28.9 °F 21.1 °F 24.1 °F 82% 29.91 in 9.0 mi West 8.1 mph - N/A   Overcast
8:52 AM 28.9 °F 19.2 °F 23.0 °F 78% 29.92 in 10.0 mi WNW 11.5 mph 18.4 mph N/A   Overcast
9:52 AM 30.0 °F 21.7 °F 23.0 °F 75% 29.92 in 10.0 mi West 9.2 mph - N/A   Scattered Clouds
10:52 AM 32.0 °F 22.5 °F 21.9 °F 66% 29.93 in 10.0 mi WSW 12.7 mph 18.4 mph 0.02 in   Clear
11:52 AM 33.1 °F 23.4 °F 21.9 °F 64% 29.92 in 10.0 mi WSW 13.8 mph 21.9 mph N/A   Clear
12:52 PM 33.1 °F 22.2 °F 21.9 °F 64% 29.92 in 10.0 mi West 17.3 mph 23.0 mph N/A   Overcast
1:52 PM 33.1 °F 23.4 °F 21.9 °F 64% 29.92 in 10.0 mi West 13.8 mph 23.0 mph N/A   Overcast
2:52 PM 34.0 °F 25.0 °F 24.1 °F 67% 29.92 in 10.0 mi West 12.7 mph 21.9 mph N/A   Overcast
3:52 PM 35.1 °F 28.6 °F 25.0 °F 67% 29.91 in 8.0 mi West 8.1 mph 17.3 mph 0.00 in   Overcast
4:52 PM 32.0 °F 21.2 °F 27.0 °F 82% 29.93 in 0.2 mi NW 16.1 mph 26.5 mph 0.00 in Snow Heavy Snow
4:59 PM 30.2 °F 19.3 °F 28.4 °F 93% 29.90 in 0.2 mi WNW 15.0 mph 21.9 mph 0.00 in Fog , Snow Snow
5:09 PM 30.2 °F 19.8 °F 28.4 °F 93% 29.90 in 0.2 mi WNW 13.8 mph - 0.00 in Fog , Snow Snow
5:14 PM 30.2 °F 20.2 °F 28.4 °F 93% 29.91 in 0.2 mi WNW 12.7 mph 20.7 mph 0.00 in Fog , Snow Snow
5:27 PM 30.2 °F 22.6 °F 28.4 °F 93% 29.90 in 1.2 mi West 8.1 mph 17.3 mph 0.00 in Snow Light Snow
5:29 PM 32.0 °F 25.6 °F 28.4 °F 87% 29.90 in 3.0 mi West 6.9 mph 17.3 mph 0.00 in Snow Light Snow
5:37 PM 33.8 °F 24.3 °F 26.6 °F 75% 29.90 in 9.0 mi West 13.8 mph 21.9 mph 0.00 in   Overcast
5:52 PM 33.1 °F 23.9 °F 26.1 °F 75% 29.93 in 7.0 mi WSW 12.7 mph 20.7 mph 0.00 in   Overcast
6:29 PM 32.0 °F 22.5 °F 28.4 °F 87% 29.91 in 2.5 mi WSW 12.7 mph 19.6 mph 0.00 in Snow Light Snow
6:35 PM 32.0 °F 23.6 °F 28.4 °F 87% 29.91 in 2.0 mi WSW 10.4 mph 19.6 mph 0.00 in Snow Light Snow
6:52 PM 30.9 °F 23.5 °F 28.9 °F 92% 29.94 in 2.0 mi WSW 8.1 mph - 0.00 in Snow Light Snow
7:07 PM 30.2 °F 18.9 °F 28.4 °F 93% 29.92 in 7.0 mi West 16.1 mph 23.0 mph 0.00 in   Overcast
7:21 PM 30.2 °F 19.8 °F 26.6 °F 86% 29.93 in 5.0 mi WNW 13.8 mph 25.3 mph 0.00 in Snow Light Snow
7:30 PM 30.2 °F 18.9 °F 24.8 °F 80% 29.93 in 8.0 mi WNW 16.1 mph 25.3 mph 0.00 in   Overcast
7:52 PM 30.0 °F 20.5 °F 25.0 °F 82% 29.96 in 3.0 mi West 11.5 mph - 0.00 in Snow Light Snow
8:07 PM 30.2 °F 20.2 °F 24.8 °F 80% 29.95 in 5.0 mi WNW 12.7 mph 18.4 mph 0.00 in Snow Light Snow
8:26 PM 30.2 °F 20.8 °F 21.2 °F 69% 29.95 in 10.0 mi WNW 11.5 mph - 0.00 in   Overcast
8:52 PM 28.9 °F 18.6 °F 21.9 °F 75% 29.99 in 4.0 mi WNW 12.7 mph 23.0 mph 0.00 in Snow Light Snow
9:32 PM 28.4 °F 19.7 °F 21.2 °F 74% 29.98 in 10.0 mi West 9.2 mph - 0.00 in   Overcast
9:48 PM 28.4 °F 16.6 °F 21.2 °F 74% 29.98 in 8.0 mi WNW 16.1 mph 21.9 mph 0.00 in   Overcast
9:52 PM 28.0 °F 18.1 °F 21.9 °F 78% 30.01 in 7.0 mi West 11.5 mph 21.9 mph 0.00 in Snow Light Snow
10:30 PM 26.6 °F 17.5 °F 23.0 °F 86% 29.99 in 3.0 mi WNW 9.2 mph - 0.00 in Snow Light Snow
10:34 PM 26.6 °F 15.7 °F 23.0 °F 86% 29.99 in 1.8 mi WNW 12.7 mph - 0.00 in Snow Light Snow
10:52 PM 26.1 °F 17.6 °F 23.0 °F 88% 30.02 in 1.5 mi West 8.1 mph - 0.00 in Snow Light Snow
11:02 PM 26.6 °F 16.8 °F 23.0 °F 86% 30.00 in 2.5 mi West 10.4 mph - 0.00 in Snow Light Snow
11:10 PM 26.6 °F 18.2 °F 23.0 °F 86% 30.00 in 3.0 mi West 8.1 mph - 0.00 in Snow Light Snow
11:52 PM 26.1 °F 16.8 °F 21.0 °F 81% 30.03 in 5.0 mi WNW 9.2 mph 18.4 mph 0.00 in Snow Light Snow